EW9523 Weather Reports


Display with metric or nautical units.
time (UTC)temp
F
wind
direction
speed
MPH
gust
MPH
rain 1hr
in
rain 24hr
in
rain mn
in
humidity
%
barometer
mb
20260510185205 71 190 3.0 8.0 0.00 0.00 0.00 68 1013.1
20260510184205 71 133 3.0 10.0 0.00 0.00 0.00 68 1013.1
20260510183205 70 132 2.0 7.0 0.00 0.00 0.00 70 1013.1
20260510182203 69 96 3.0 9.0 0.00 0.00 0.00 70 1013.1
20260510181203 69 225 2.0 7.0 0.00 0.00 0.00 68 1013.2
20260510180203 68 128 2.0 9.0 0.00 0.00 0.00 72 1013.2
20260510175204 68 171 2.0 6.0 0.00 0.00 0.00 72 1013.3
20260510174159 67 126 2.0 9.0 0.00 0.00 0.00 72 1013.4
20260510173200 66 298 2.0 5.0 0.00 0.00 0.00 74 1013.5
20260510172200 65 171 2.0 5.0 0.00 0.00 0.00 75 1013.4
20260510171159 64 122 1.0 6.0 0.00 0.00 0.00 77 1013.5
20260510170200 63 156 2.0 5.0 0.00 0.00 0.00 80 1013.5
20260510165159 62 112 1.0 3.0 0.00 0.00 0.00 82 1013.6
20260510164159 61 68 1.0 6.0 0.00 0.00 0.00 82 1013.4
20260510163200 59 124 1.0 4.0 0.00 0.00 0.00 87 1013.4
20260510162157 57 232 1.0 4.0 0.00 0.00 0.00 89 1013.2
20260510161157 56 248 1.0 4.0 0.00 0.00 0.00 91 1013.2
20260510160157 55 93 2.0 4.0 0.00 0.00 0.00 94 1013.3
20260510155640 53 123 1.0 2.0 0.00 0.00 0.00 95 1013.2
20260510154158 53 97 0.0 2.0 0.00 0.00 0.00 96 1013.3
20260510153135 53 189 0.0 0.0 0.00 0.00 0.00 96 1013.2
20260510152135 52 189 0.0 0.0 0.00 0.00 0.00 96 1013.2
20260510151127 51 189 0.0 2.0 0.00 0.00 0.00 96 1013.2
20260510150126 51 203 0.0 1.0 0.00 0.00 0.00 96 1013.2
20260510145116 51 203 0.0 2.0 0.00 0.00 0.00 96 1013.1
20260510144114 51 184 0.0 1.0 0.00 0.00 0.00 96 1013.1
20260510143105 50 214 0.0 2.0 0.00 0.00 0.00 96 1013.0
20260510142049 50 152 0.0 0.0 0.00 0.00 0.00 96 1012.9
20260510141045 50 158 0.0 2.0 0.00 0.00 0.00 96 1012.9
20260510140539 50 99 0.0 0.0 0.00 0.00 0.00 96 1012.7
20260510135041 50 99 0.0 0.0 0.00 0.00 0.00 96 1012.6
20260510134033 50 288 0.0 2.0 0.00 0.00 0.00 96 1012.6
20260510133033 49 44 0.0 1.0 0.00 0.00 0.00 96 1012.4
20260510132025 49 111 0.0 0.0 0.00 0.00 0.00 96 1012.3
20260510131025 49 111 0.0 3.0 0.00 0.00 0.00 95 1012.3
20260510130023 49 117 0.0 0.0 0.00 0.00 0.00 95 1012.3
20260510125021 50 117 0.0 2.0 0.00 0.00 0.00 95 1012.2
20260510124019 50 111 0.0 2.0 0.00 0.00 0.00 95 1012.3
20260510123019 49 124 1.0 4.0 0.00 0.00 0.00 95 1012.2
20260510122940 49 118 1.0 4.0 0.00 0.00 0.00 95 1012.1
20260510121017 49 125 2.0 5.0 0.00 0.00 0.00 94 1012.2
20260510120450 49 115 0.0 2.0 0.00 0.00 0.00 94 1012.2
20260510115455 49 94 0.0 1.0 0.00 0.00 0.00 93 1012.2
20260510114013 50 94 0.0 2.0 0.00 0.00 0.00 93 1012.2
20260510113001 51 55 0.0 0.0 0.00 0.00 0.00 93 1012.1
20260510111958 51 55 0.0 0.0 0.00 0.00 0.00 93 1012.2
20260510110957 51 55 0.0 0.0 0.00 0.00 0.00 93 1012.2
20260510105953 51 55 0.0 0.0 0.00 0.00 0.00 93 1012.1
20260510105416 51 61 0.0 1.0 0.00 0.00 0.00 93 1012.2
20260510103902 51 61 0.0 1.0 0.00 0.00 0.00 93 1012.2
20260510102849 51 61 0.0 1.0 0.00 0.00 0.00 93 1012.2
20260510101841 51 61 1.0 2.0 0.00 0.00 0.00 93 1012.2
20260510101319 52 57 0.0 3.0 0.00 0.00 0.00 92 1012.3
20260510095834 52 57 0.0 0.0 0.00 0.00 0.00 92 1012.2
20260510094823 52 57 1.0 2.0 0.00 0.00 0.00 91 1012.1
20260510093821 52 57 0.0 1.0 0.00 0.00 0.00 92 1012.1
20260510092812 52 57 0.0 2.0 0.00 0.00 0.00 91 1012.2
20260510092155 53 106 1.0 2.0 0.00 0.00 0.00 91 1012.3
20260510091824 53 106 0.0 1.0 0.00 0.00 0.00 91 1012.2
20260510085755 54 92 1.0 3.0 0.00 0.00 0.00 90 1012.4
20260510084755 53 91 0.0 0.0 0.00 0.00 0.00 91 1012.4
20260510083751 54 76 0.0 0.0 0.00 0.00 0.00 89 1012.4
20260510083230 54 100 0.0 0.0 0.00 0.00 0.00 89 1012.4
20260510081725 54 84 0.0 0.0 0.00 0.00 0.00 89 1012.5
20260510081202 54 104 0.0 0.0 0.00 0.00 0.00 89 1012.5
20260510075717 55 113 1.0 3.0 0.00 0.00 0.00 88 1012.5
20260510074715 55 91 0.0 1.0 0.00 0.00 0.00 88 1012.5
20260510073707 55 91 0.0 1.0 0.00 0.00 0.00 88 1012.5
20260510072655 56 111 1.0 3.0 0.00 0.00 0.00 89 1012.4
20260510071643 56 108 1.0 3.0 0.00 0.00 0.00 88 1012.3
20260510070634 56 115 1.0 3.0 0.00 0.00 0.00 87 1012.3
20260510065632 57 132 1.0 4.0 0.00 0.00 0.00 87 1012.2
20260510064620 57 126 1.0 3.0 0.00 0.00 0.00 86 1012.2
20260510063616 58 104 1.0 4.0 0.00 0.00 0.00 85 1012.2
20260510062616 58 149 1.0 4.0 0.00 0.00 0.00 84 1012.1
20260510061613 58 119 2.0 3.0 0.00 0.00 0.00 83 1012.1
20260510060612 59 85 2.0 3.0 0.00 0.00 0.00 79 1012.1
20260510055610 59 98 2.0 3.0 0.00 0.00 0.00 77 1012.1
20260510054608 60 55 2.0 4.0 0.00 0.00 0.00 77 1012.1
20260510053607 60 52 2.0 4.0 0.00 0.00 0.00 75 1012.1
20260510052604 61 52 1.0 2.0 0.00 0.00 0.00 74 1012.1
20260510051604 62 59 1.0 3.0 0.00 0.00 0.00 73 1012.0
20260510050555 62 53 1.0 3.0 0.00 0.00 0.00 72 1012.0
20260510045557 63 54 2.0 4.0 0.00 0.00 0.00 70 1012.0
20260510044554 64 331 1.0 4.0 0.00 0.00 0.00 69 1011.9
20260510043546 65 26 1.0 4.0 0.00 0.00 0.00 68 1011.7
20260510042544 66 39 0.0 3.0 0.00 0.00 0.00 65 1011.7
20260510041538 67 66 1.0 3.0 0.00 0.00 0.00 63 1011.7
20260510040535 68 63 1.0 3.0 0.00 0.00 0.00 62 1011.6
20260510035535 69 328 1.0 4.0 0.00 0.00 0.00 59 1011.6
20260510034535 70 355 1.0 4.0 0.00 0.00 0.00 58 1011.5
20260510033534 71 5 1.0 4.0 0.00 0.00 0.00 57 1011.4
20260510033011 72 333 2.0 7.0 0.00 0.00 0.00 55 1011.3
20260510031521 73 256 1.0 6.0 0.00 0.00 0.00 53 1011.3
20260510030521 74 267 3.0 9.0 0.00 0.00 0.00 52 1011.2
20260510025519 76 271 4.0 9.0 0.00 0.00 0.00 50 1011.0
20260510024518 77 250 3.0 9.0 0.00 0.00 0.00 49 1011.0
20260510023516 78 272 4.0 8.0 0.00 0.00 0.00 46 1010.9
20260510022516 80 270 3.0 10.0 0.00 0.00 0.00 45 1010.8
20260510021516 81 266 2.0 6.0 0.00 0.00 0.00 45 1010.8
20260510021446 82 217 2.0 5.0 0.00 0.00 0.00 46 1011.0
20260510015517 82 284 2.0 7.0 0.00 0.00 0.00 47 1011.0
20260510014516 82 273 4.0 9.0 0.00 0.00 0.00 43 1010.9
20260510013508 82 289 4.0 10.0 0.00 0.00 0.00 44 1010.9
20260510012506 83 271 4.0 11.0 0.00 0.00 0.00 41 1010.9
20260510011507 84 207 4.0 9.0 0.00 0.00 0.00 40 1010.9
20260510010505 84 249 2.0 9.0 0.00 0.00 0.00 40 1010.9
20260510005503 84 175 4.0 11.0 0.00 0.00 0.00 44 1011.0
20260510004500 83 259 2.0 7.0 0.00 0.00 0.00 56 1011.0
20260510003500 84 146 2.0 5.0 0.00 0.00 0.00 55 1011.0
20260510002937 83 130 3.0 7.0 0.00 0.00 0.00 55 1011.0
20260510001458 84 194 2.0 7.0 0.00 0.00 0.00 54 1010.9
20260510000459 84 145 3.0 7.0 0.00 0.00 0.00 55 1011.0
20260510000414 84 173 4.0 11.0 0.00 0.00 0.00 54 1011.1
20260509234434 85 97 3.0 9.0 0.00 0.00 0.00 55 1011.2
20260509233426 85 102 4.0 10.0 0.00 0.00 0.00 54 1011.2
20260509232427 85 122 3.0 10.0 0.00 0.00 0.00 55 1011.2
20260509231422 85 146 4.0 9.0 0.00 0.00 0.00 53 1011.2
20260509230420 85 131 3.0 10.0 0.00 0.00 0.00 53 1011.2
20260509225420 85 192 3.0 7.0 0.00 0.00 0.00 54 1011.3
20260509224418 86 121 3.0 7.0 0.00 0.00 0.00 51 1011.4
20260509223416 86 186 2.0 9.0 0.00 0.00 0.00 51 1011.4
20260509222417 85 232 4.0 10.0 0.00 0.00 0.00 52 1011.5
20260509221416 85 113 3.0 9.0 0.00 0.00 0.00 51 1011.7
20260509220416 86 169 3.0 9.0 0.00 0.00 0.00 51 1011.8
20260509215411 85 98 2.0 9.0 0.00 0.00 0.00 49 1011.8
20260509214411 85 149 3.0 9.0 0.00 0.00 0.00 49 1011.9
20260509213408 85 196 3.0 7.0 0.00 0.00 0.00 50 1012.1
20260509212407 86 86 3.0 7.0 0.00 0.00 0.00 50 1012.1
20260509211406 86 223 2.0 7.0 0.00 0.00 0.00 50 1012.3
20260509210406 85 86 2.0 6.0 0.00 0.00 0.00 49 1012.3
20260509205406 84 88 2.0 6.0 0.00 0.00 0.00 47 1012.4
20260509204406 84 181 2.0 6.0 0.00 0.00 0.00 46 1012.5
20260509203358 84 142 2.0 4.0 0.00 0.00 0.00 47 1012.5
20260509202359 84 169 3.0 6.0 0.00 0.00 0.00 49 1012.7
20260509201358 84 105 2.0 7.0 0.00 0.00 0.00 50 1012.8
20260509200356 83 234 1.0 6.0 0.00 0.00 0.00 49 1012.9
20260509195356 82 202 1.0 4.0 0.00 0.00 0.00 48 1013.1
20260509194353 82 69 1.0 4.0 0.00 0.00 0.00 48 1013.1
20260509193352 81 325 2.0 5.0 0.00 0.00 0.00 49 1013.1
20260509192353 80 165 1.0 3.0 0.00 0.00 0.00 50 1013.2
20260509191353 80 165 2.0 4.0 0.00 0.00 0.00 51 1013.4
20260509190835 79 323 1.0 6.0 0.00 0.00 0.00 51 1013.5
20260509185827 78 54 1.0 3.0 0.00 0.00 0.00 52 1013.4